Regional Weather Roundup
Issued by NWS Northern Indiana

Home | Current Version | Previous Version | Text Only | Print | Product List | Glossary Off
Versions: 1 2 3 4 5 6 7 8 9 10 11 12 13 14 15 16 17 18 19 20 21 22 23 24 25 26 27 28 29 30 31 32 33 34 35 36 37 38 39 40 41 42 43 44 45 46 47 48 49 50

000
ASUS43 KIWX 300310
RWRIWX

KIWX WEATHER ROUNDUP
NATIONAL WEATHER SERVICE NORTHERN INDIANA
1000 PM EST THU JAN 29 2015

NOTE: "FAIR" INDICATES FEW OR NO CLOUDS BELOW 12,000 FEET WITH NO
SIGNIFICANT WEATHER AND/OR OBSTRUCTIONS TO VISIBILITY.

* THESE STATIONS ARE NOT UNDER NWS QUALITY CONTROL. THEY ALSO MAY NOT
  REPORT WEATHER SUCH AS PRECIPITATION OR FOG.

INZ001>027-300400-
NORTHERN INDIANA

CITY           SKY/WX    TMP DP  RH WIND       PRES   REMARKS
GARY*          CLOUDY    37  16  42 NW22      30.22R
VALPARAISO     CLOUDY    34  21  59 NW10G20   30.19R WCI  26
MICHIGAN CITY* CLOUDY    34  21  60 NW8G22    30.19R WCI  27
LAPORTE*       CLOUDY    35  27  72 NW13G20   30.17R WCI  26
KNOX*          CLOUDY    32  14  47 NW15      30.17R WCI  22
SOUTH BEND     CLOUDY    35  23  61 NW16G26   30.15R WCI  25
GOSHEN         CLOUDY    33  27  78 NW13      30.12S WCI  24
MONTICELLO*    CLOUDY    33  28  83 W8        30.20R WCI  26
LOGANSPORT*    CLOUDY    32  30  93 W10       30.19R WCI  24
ROCHESTER*     CLOUDY    34  32  93 NW7       30.17R WCI  28
WARSAW*        LGT RAIN  32  28  86 NW13      30.13S WCI  22
ANGOLA*        CLOUDY    30  27  86 NW12      30.08R WCI  21
FORT WAYNE     FRZ DRZL  32  29  88 NW9       30.13R WCI  24
HUNTINGTON*    CLOUDY    32  27  80 NW10      30.14R WCI  24
PERU/GRISSOM   CLOUDY    32  28  86 W9        30.17R WCI  24
MARION*        CLOUDY    32  29  89 NW13      30.17R WCI  22

$$
INZ028>050-300400-
CENTRAL INDIANA

CITY           SKY/WX    TMP DP  RH WIND       PRES   REMARKS
LAFAYETTE      CLOUDY    33  26  75 NW10      30.22R WCI  25
KOKOMO*        CLOUDY    32  28  86 NW12      30.18R WCI  23
MUNCIE*        CLOUDY    32  29  88 NW15G26   30.15R FOG     WCI  22
INDIANAPOLIS   CLOUDY    31  28  89 NW13      30.21R WCI  21

$$
MIZ043>046-050>051-056>058-064>065-071>073-077>080-300400-
SOUTHWEST LOWER MICHIGAN

CITY           SKY/WX    TMP DP  RH WIND       PRES   REMARKS
BATTLE CREEK   LGT SNOW  32  27  81 NW12      30.08R WCI  23
BENTON HARBOR  CLOUDY    33  25  72 NW9G22    30.15R WCI  25
COLDWATER*     CLOUDY    31  27  84 NW12      30.08R WCI  22
HILLSDALE*     FLURRIES  31  27  84 NW14      30.05R WCI  21
HOLLAND        CLOUDY    32  22  66 N10G20    30.14R WCI  24
GRAND RAPIDS   FLURRIES  29  22  75 NW15      30.11R WCI  18
KALAMAZOO      FLURRIES  32  26  78 NW14      30.10R WCI  22
STURGIS*       MIX PCPN  30  28  93 CALM      30.09S
THREE RIVERS*  CLOUDY    32  28  84 NW7       30.10S WCI  26

$$
OHZ001>008-015>018-024>025-300400-
NORTHWEST OHIO

CITY           SKY/WX    TMP DP  RH WIND       PRES   REMARKS
WAUSEON*       LGT RAIN  32  28  86 N14G20    30.06R WCI  22
DEFIANCE       CLOUDY    33  26  75 NW15      30.09R WCI  23
FINDLAY        CLOUDY    33  29  85 NW16G22   30.05R WCI  23
TOLEDO EXPRESS CLOUDY    32  27  80 NW17G24   30.05R WCI  21
TOLEDO METCALF MIX PCPN  33  28  81 W13       30.05R WCI  24
LIMA           CLOUDY    34  28  79 NW21      30.07R WCI  22

$$
AND FOR LAKE MICHIGAN COASTAL AND OPEN LAKE BUOY OBSERVATIONS

STATION/POSITION TEMP    WIND        PRES    VSBY  WAVE
                 AIR SEA DIR/SP/G                  HT/PER
                 (F)     (DEG/KT/KT) (MB)    (MI)  (FT/S)
CALUMET HARBOR    35     300/ 10/ 13   N/A
MICHIGAN CITY     34     280/ 22/ 25   N/A
SAINT JOSEPH      34     330/ 18/ 25 1021.3F

$$
&&



USA.gov is the U.S. government's official web portal to all federal, state and local government web resources and services.